Time,TemperatureF,DewpointF,PressureIn,WindDirection,WindDirectionDegrees,WindSpeedMPH,WindSpeedGustMPH,Humidity,HourlyPrecipIn,Conditions,Clouds,dailyrainin,SoftwareType,DateUTC
2013-01-21 00:23:00,14.7,1.8,29.96,WSW,248,5.4,5.4,56,0.00,,,0.00,WUHU21623XXSP,2013-01-21 05:23:00,
2013-01-21 01:23:00,15.3,2.4,29.96,West,270,0.0,0.0,56,0.00,,,0.00,WUHU21623XXSP,2013-01-21 06:23:00,
2013-01-21 02:23:00,15.6,2.7,29.96,SSW,203,4.0,4.0,56,0.00,,,0.00,WUHU21623XXSP,2013-01-21 07:23:00,
2013-01-21 03:23:00,16.0,3.1,29.95,WSW,248,0.0,0.0,56,0.00,,,0.00,WUHU21623XXSP,2013-01-21 08:23:00,
2013-01-21 04:23:00,16.2,4.2,29.93,West,270,0.0,0.0,58,0.00,,,0.00,WUHU21623XXSP,2013-01-21 09:23:00,
2013-01-21 05:23:00,16.2,4.8,29.92,SW,225,0.0,0.0,60,0.00,,,0.00,WUHU21623XXSP,2013-01-21 10:23:00,
2013-01-21 06:23:00,16.2,5.4,29.91,SW,225,0.0,0.0,62,0.00,,,0.00,WUHU21623XXSP,2013-01-21 11:23:00,
2013-01-21 07:23:00,16.5,5.9,29.91,WNW,293,0.0,0.0,62,0.00,,,0.00,WUHU21623XXSP,2013-01-21 12:23:00,
2013-01-21 08:23:00,17.4,6.8,29.90,SSW,203,4.0,4.0,62,0.00,,,0.00,WUHU21623XXSP,2013-01-21 13:23:00,
2013-01-21 09:23:00,19.0,7.7,29.89,WSW,248,0.0,0.0,61,0.00,,,0.00,WUHU21623XXSP,2013-01-21 14:23:00,
2013-01-21 10:23:00,21.2,6.9,29.88,WSW,248,0.0,0.0,54,0.00,,,0.00,WUHU21623XXSP,2013-01-21 15:23:00,
2013-01-21 11:23:00,21.6,8.6,29.85,SW,225,0.0,0.0,57,0.00,,,0.00,WUHU21623XXSP,2013-01-21 16:23:00,
2013-01-21 12:23:00,21.9,9.2,29.80,WSW,248,0.0,0.0,58,0.00,,,0.00,WUHU21623XXSP,2013-01-21 17:23:00,
2013-01-21 12:36:00,21.6,9.3,29.79,SW,225,7.2,7.2,58,0.00,,,0.00,WUHU21623XXSP,2013-01-21 17:36:00,
2013-01-21 12:39:00,21.7,9.4,29.79,SSW,202,10.3,10.3,58,0.00,,,0.00,WUHU21623XXSP,2013-01-21 17:39:00,
2013-01-21 12:40:00,21.7,9.4,29.79,SSW,202,10.3,10.3,58,0.00,,,0.00,WUHU21623XXSP,2013-01-21 17:40:00,
2013-01-21 12:45:00,21.7,9.4,29.79,SW,233,4.3,10.3,58,0.00,,,0.00,WUHU21623XXSP,2013-01-21 17:45:00,
2013-01-21 12:50:00,21.9,9.6,29.79,SW,236,5.0,9.2,58,0.00,,,0.00,WUHU21623XXSP,2013-01-21 17:50:00,
2013-01-21 12:55:00,21.9,9.6,29.79,SSW,202,2.0,8.9,58,0.00,,,0.00,WUHU21623XXSP,2013-01-21 17:55:00,
2013-01-21 13:00:00,21.9,9.6,29.78,West,270,0.0,6.3,58,0.00,,,0.00,WUHU21623XXSP,2013-01-21 18:00:00,
2013-01-21 13:05:00,22.1,9.7,29.78,SW,225,3.8,7.2,58,0.00,,,0.00,WUHU21623XXSP,2013-01-21 18:05:00,
2013-01-21 13:10:00,22.1,9.7,29.78,WSW,247,5.4,8.9,58,0.00,,,0.00,WUHU21623XXSP,2013-01-21 18:10:00,
2013-01-21 13:15:00,21.9,9.2,29.77,SSW,211,4.9,10.7,58,0.00,,,0.00,WUHU21623XXSP,2013-01-21 18:15:00,
2013-01-21 13:20:00,21.7,9.1,29.77,WSW,243,3.5,12.3,58,0.00,,,0.00,WUHU21623XXSP,2013-01-21 18:20:00,
2013-01-21 13:25:00,21.6,9.3,29.77,West,270,7.4,12.3,58,0.00,,,0.00,WUHU21623XXSP,2013-01-21 18:25:00,
2013-01-21 13:30:00,21.4,9.1,29.77,SW,225,5.8,9.6,58,0.00,,,0.00,WUHU21623XXSP,2013-01-21 18:30:00,
2013-01-21 13:35:00,21.0,8.7,29.78,SW,223,3.6,9.6,58,0.00,,,0.00,WUHU21623XXSP,2013-01-21 18:35:00,
2013-01-21 13:40:00,21.0,8.7,29.78,WSW,247,6.5,11.4,58,0.00,,,0.00,WUHU21623XXSP,2013-01-21 18:40:00,
2013-01-21 13:45:00,21.0,9.0,29.78,SW,236,4.4,14.1,59,0.00,,,0.00,WUHU21623XXSP,2013-01-21 18:45:00,
2013-01-21 13:50:00,20.8,8.8,29.77,SW,225,6.5,14.1,59,0.00,,,0.00,WUHU21623XXSP,2013-01-21 18:50:00,
2013-01-21 13:55:00,20.8,8.8,29.77,WSW,244,5.3,9.2,59,0.00,,,0.00,WUHU21623XXSP,2013-01-21 18:55:00,
2013-01-21 14:00:00,21.0,9.0,29.77,SSW,213,3.9,10.7,59,0.00,,,0.00,WUHU21623XXSP,2013-01-21 19:00:00,
2013-01-21 14:05:00,21.0,9.0,29.77,West,270,7.8,10.7,59,0.00,,,0.00,WUHU21623XXSP,2013-01-21 19:05:00,
2013-01-21 14:10:00,21.0,9.3,29.77,WSW,237,5.9,10.3,60,0.00,,,0.00,WUHU21623XXSP,2013-01-21 19:10:00,
2013-01-21 14:15:00,21.0,9.3,29.77,WSW,256,1.9,9.2,60,0.00,,,0.00,WUHU21623XXSP,2013-01-21 19:15:00,
2013-01-21 14:20:00,21.0,9.0,29.77,West,267,6.3,9.2,59,0.00,,,0.00,WUHU21623XXSP,2013-01-21 19:20:00,
2013-01-21 14:25:00,20.8,8.8,29.77,WSW,254,8.8,13.0,59,0.00,,,0.00,WUHU21623XXSP,2013-01-21 19:25:00,
2013-01-21 14:30:00,20.8,9.1,29.77,NW,315,13.4,13.4,60,0.00,,,0.00,WUHU21623XXSP,2013-01-21 19:30:00,
2013-01-21 14:35:00,20.8,9.1,29.77,WSW,241,5.5,13.4,60,0.00,,,0.00,WUHU21623XXSP,2013-01-21 19:35:00,
2013-01-21 14:40:00,20.8,9.1,29.77,SW,225,10.7,13.2,60,0.00,,,0.00,WUHU21623XXSP,2013-01-21 19:40:00,
2013-01-21 14:45:00,21.0,9.3,29.77,WSW,238,5.2,10.7,60,0.00,,,0.00,WUHU21623XXSP,2013-01-21 19:45:00,
2013-01-21 14:50:00,21.4,10.0,29.78,West,260,5.5,8.9,61,0.00,,,0.00,WUHU21623XXSP,2013-01-21 19:50:00,
2013-01-21 14:55:00,21.4,10.0,29.77,West,276,5.7,8.5,61,0.00,,,0.00,WUHU21623XXSP,2013-01-21 19:55:00,
2013-01-21 15:00:00,21.4,10.0,29.78,West,269,6.7,11.0,61,0.00,,,0.00,WUHU21623XXSP,2013-01-21 20:00:00,
2013-01-21 15:05:00,21.4,10.0,29.78,WSW,247,6.5,11.0,61,0.00,,,0.00,WUHU21623XXSP,2013-01-21 20:05:00,
2013-01-21 15:10:00,21.6,9.9,29.78,West,264,7.0,10.5,60,0.00,,,0.00,WUHU21623XXSP,2013-01-21 20:10:00,
2013-01-21 15:15:00,21.4,9.7,29.78,West,265,6.8,11.6,60,0.00,,,0.00,WUHU21623XXSP,2013-01-21 20:15:00,
2013-01-21 15:20:00,21.4,9.7,29.78,WSW,247,3.9,11.6,60,0.00,,,0.00,WUHU21623XXSP,2013-01-21 20:20:00,
2013-01-21 15:25:00,21.0,9.3,29.78,WSW,258,5.5,11.0,60,0.00,,,0.00,WUHU21623XXSP,2013-01-21 20:25:00,
2013-01-21 15:30:00,20.8,9.1,29.78,WSW,247,6.3,10.1,60,0.00,,,0.00,WUHU21623XXSP,2013-01-21 20:30:00,
2013-01-21 15:35:00,20.3,9.0,29.78,WSW,251,5.1,11.9,61,0.00,,,0.00,WUHU21623XXSP,2013-01-21 20:35:00,
2013-01-21 15:40:00,20.1,8.8,29.78,WSW,239,6.5,11.9,61,0.00,,,0.00,WUHU21623XXSP,2013-01-21 20:40:00,
2013-01-21 15:45:00,20.1,8.8,29.78,WSW,252,4.8,11.9,61,0.00,,,0.00,WUHU21623XXSP,2013-01-21 20:45:00,
2013-01-21 15:50:00,20.1,8.8,29.79,West,264,4.8,14.1,61,0.00,,,0.00,WUHU21623XXSP,2013-01-21 20:50:00,
2013-01-21 15:55:00,20.1,8.5,29.79,WSW,244,4.2,14.1,60,0.00,,,0.00,WUHU21623XXSP,2013-01-21 20:55:00,
2013-01-21 16:00:00,20.1,8.5,29.79,WSW,244,4.0,8.9,60,0.00,,,0.00,WUHU21623XXSP,2013-01-21 21:00:00,
2013-01-21 16:05:00,20.1,8.5,29.79,WSW,237,6.8,11.6,60,0.00,,,0.00,WUHU21623XXSP,2013-01-21 21:05:00,
2013-01-21 16:10:00,20.1,8.2,29.79,WSW,247,4.5,11.6,59,0.00,,,0.00,WUHU21623XXSP,2013-01-21 21:10:00,
2013-01-21 16:15:00,20.1,8.2,29.79,SW,225,13.9,13.9,59,0.00,,,0.00,WUHU21623XXSP,2013-01-21 21:15:00,
2013-01-21 16:20:00,20.1,7.9,29.78,WSW,247,12.5,15.7,58,0.00,,,0.00,WUHU21623XXSP,2013-01-21 21:20:00,
2013-01-21 16:25:00,19.8,7.6,29.79,WSW,245,9.3,18.6,58,0.00,,,0.00,WUHU21623XXSP,2013-01-21 21:25:00,
2013-01-21 16:30:00,19.6,7.7,29.80,WSW,240,7.6,18.6,59,0.00,,,0.00,WUHU21623XXSP,2013-01-21 21:30:00,
2013-01-21 16:35:00,19.6,8.3,29.80,WSW,251,7.3,17.0,61,0.00,,,0.00,WUHU21623XXSP,2013-01-21 21:35:00,
2013-01-21 16:40:00,19.2,8.2,29.80,NNW,337,11.9,11.9,62,0.00,,,0.00,WUHU21623XXSP,2013-01-21 21:40:00,
2013-01-21 16:45:00,19.0,8.0,29.80,NW,315,7.2,12.8,62,0.00,,,0.00,WUHU21623XXSP,2013-01-21 21:45:00,
2013-01-21 16:50:00,18.3,7.3,29.81,WSW,248,4.8,17.0,62,0.00,,,0.00,WUHU21623XXSP,2013-01-21 21:50:00,
2013-01-21 16:55:00,17.8,7.2,29.81,WSW,247,4.5,17.0,62,0.00,,,0.00,WUHU21623XXSP,2013-01-21 21:55:00,
2013-01-21 17:00:00,17.4,6.5,29.81,WSW,244,4.3,9.2,62,0.00,,,0.00,WUHU21623XXSP,2013-01-21 22:00:00,
2013-01-21 17:05:00,17.2,6.6,29.81,WSW,247,7.2,11.2,62,0.00,,,0.00,WUHU21623XXSP,2013-01-21 22:05:00,
2013-01-21 17:10:00,17.2,6.6,29.81,WSW,247,10.7,11.2,62,0.00,,,0.00,WUHU21623XXSP,2013-01-21 22:10:00,
2013-01-21 17:16:00,16.9,6.6,29.81,SW,225,5.6,11.4,63,0.00,,,0.00,WUHU21623XXSP,2013-01-21 22:16:00,
2013-01-21 17:21:00,16.9,6.6,29.81,SSW,202,7.8,11.4,63,0.00,,,0.00,WUHU21623XXSP,2013-01-21 22:21:00,
2013-01-21 17:26:00,16.7,6.4,29.81,West,269,4.3,11.2,63,0.00,,,0.00,WUHU21623XXSP,2013-01-21 22:26:00,
2013-01-21 17:31:00,16.5,6.2,29.81,WSW,253,4.9,13.9,63,0.00,,,0.00,WUHU21623XXSP,2013-01-21 22:31:00,
2013-01-21 17:36:00,16.5,6.2,29.82,SW,225,7.8,13.9,63,0.00,,,0.00,WUHU21623XXSP,2013-01-21 22:36:00,
2013-01-21 17:41:00,16.3,6.0,29.82,WSW,248,5.4,13.4,63,0.00,,,0.00,WUHU21623XXSP,2013-01-21 22:41:00,
2013-01-21 17:46:00,16.3,6.3,29.83,West,273,4.7,13.4,64,0.00,,,0.00,WUHU21623XXSP,2013-01-21 22:46:00,
2013-01-21 17:51:00,16.2,6.2,29.83,WSW,253,5.9,11.6,64,0.00,,,0.00,WUHU21623XXSP,2013-01-21 22:51:00,
2013-01-21 17:56:00,16.0,6.0,29.83,WSW,239,7.9,13.6,64,0.00,,,0.00,WUHU21623XXSP,2013-01-21 22:56:00,
2013-01-21 18:01:00,16.0,6.0,29.83,West,270,12.8,15.4,64,0.00,,,0.00,WUHU21623XXSP,2013-01-21 23:01:00,
2013-01-21 18:06:00,15.6,5.6,29.83,WSW,247,9.2,15.4,64,0.00,,,0.00,WUHU21623XXSP,2013-01-21 23:06:00,
2013-01-21 18:11:00,15.3,5.1,29.83,West,265,7.5,11.9,63,0.00,,,0.00,WUHU21623XXSP,2013-01-21 23:11:00,
2013-01-21 18:16:00,14.7,4.5,29.83,WSW,253,8.3,15.2,63,0.00,,,0.00,WUHU21623XXSP,2013-01-21 23:16:00,
2013-01-21 18:21:00,14.5,4.3,29.83,WSW,239,9.8,15.2,63,0.00,,,0.00,WUHU21623XXSP,2013-01-21 23:21:00,
2013-01-21 18:26:00,14.5,4.3,29.83,WSW,247,8.1,19.5,63,0.00,,,0.00,WUHU21623XXSP,2013-01-21 23:26:00,
2013-01-21 18:31:00,14.5,4.3,29.83,WSW,247,7.8,19.5,63,0.00,,,0.00,WUHU21623XXSP,2013-01-21 23:31:00,
2013-01-21 18:36:00,14.5,4.6,29.83,NW,315,7.4,12.3,64,0.00,,,0.00,WUHU21623XXSP,2013-01-21 23:36:00,
2013-01-21 18:41:00,14.5,4.6,29.83,SW,225,9.4,11.2,64,0.00,,,0.00,WUHU21623XXSP,2013-01-21 23:41:00,
2013-01-21 18:46:00,14.4,4.5,29.83,West,280,7.4,15.9,64,0.00,,,0.00,WUHU21623XXSP,2013-01-21 23:46:00,
2013-01-21 18:51:00,14.2,4.3,29.83,WNW,292,7.4,15.9,64,0.00,,,0.00,WUHU21623XXSP,2013-01-21 23:51:00,
2013-01-21 18:56:00,13.8,3.9,29.83,West,275,6.7,13.0,64,0.00,,,0.00,WUHU21623XXSP,2013-01-21 23:56:00,
2013-01-21 19:01:00,13.8,3.9,29.83,West,270,9.4,14.5,64,0.00,,,0.00,WUHU21623XXSP,2013-01-22 00:01:00,
2013-01-21 19:06:00,13.8,3.9,29.83,WNW,292,12.3,14.5,64,0.00,,,0.00,WUHU21623XXSP,2013-01-22 00:06:00,
2013-01-21 19:11:00,13.8,3.9,29.83,SW,225,6.7,12.3,64,0.00,,,0.00,WUHU21623XXSP,2013-01-22 00:11:00,
2013-01-21 19:16:00,13.8,3.9,29.83,SW,225,14.5,14.5,64,0.00,,,0.00,WUHU21623XXSP,2013-01-22 00:16:00,
2013-01-21 19:21:00,13.8,3.9,29.83,WSW,256,7.1,14.5,64,0.00,,,0.00,WUHU21623XXSP,2013-01-22 00:21:00,
2013-01-21 19:26:00,13.8,3.6,29.83,WSW,249,3.8,13.2,63,0.00,,,0.00,WUHU21623XXSP,2013-01-22 00:26:00,
2013-01-21 19:31:00,13.8,3.6,29.83,NW,312,4.1,9.2,63,0.00,,,0.00,WUHU21623XXSP,2013-01-22 00:31:00,
2013-01-21 19:36:00,13.8,3.6,29.83,WSW,250,6.0,12.1,63,0.00,,,0.00,WUHU21623XXSP,2013-01-22 00:36:00,
2013-01-21 19:41:00,13.8,3.6,29.82,West,268,5.0,12.1,63,0.00,,,0.00,WUHU21623XXSP,2013-01-22 00:41:00,
2013-01-21 19:46:00,13.6,3.4,29.83,West,263,7.1,13.9,63,0.00,,,0.00,WUHU21623XXSP,2013-01-22 00:46:00,
2013-01-21 19:51:00,13.6,3.4,29.83,WNW,284,3.8,13.9,63,0.00,,,0.00,WUHU21623XXSP,2013-01-22 00:51:00,
2013-01-21 19:56:00,13.6,3.7,29.83,WSW,257,5.4,11.4,64,0.00,,,0.00,WUHU21623XXSP,2013-01-22 00:56:00,
2013-01-21 20:01:00,13.6,3.7,29.83,West,264,3.6,9.6,64,0.00,,,0.00,WUHU21623XXSP,2013-01-22 01:01:00,
2013-01-21 20:06:00,13.3,3.4,29.83,West,266,6.4,13.9,64,0.00,,,0.00,WUHU21623XXSP,2013-01-22 01:06:00,
2013-01-21 20:11:00,13.3,3.2,29.83,WSW,247,11.6,16.6,63,0.00,,,0.00,WUHU21623XXSP,2013-01-22 01:11:00,
2013-01-21 20:16:00,13.1,3.0,29.83,WSW,247,6.7,16.6,63,0.00,,,0.00,WUHU21623XXSP,2013-01-22 01:16:00,
2013-01-21 20:21:00,12.9,2.8,29.83,WNW,295,7.3,17.2,63,0.00,,,0.00,WUHU21623XXSP,2013-01-22 01:21:00,
2013-01-21 20:26:00,12.7,2.6,29.83,West,270,6.8,17.2,63,0.00,,,0.00,WUHU21623XXSP,2013-01-22 01:26:00,
2013-01-21 20:31:00,12.6,2.5,29.83,West,267,7.3,16.8,63,0.00,,,0.00,WUHU21623XXSP,2013-01-22 01:31:00,
2013-01-21 20:36:00,12.2,2.1,29.84,WSW,246,7.3,12.5,63,0.00,,,0.00,WUHU21623XXSP,2013-01-22 01:36:00,
2013-01-21 20:42:00,12.0,1.9,29.83,WSW,258,8.4,16.3,63,0.00,,,0.00,WUHU21623XXSP,2013-01-22 01:42:00,
2013-01-21 20:47:00,11.8,1.7,29.84,WSW,250,5.3,16.3,63,0.00,,,0.00,WUHU21623XXSP,2013-01-22 01:47:00,
2013-01-21 20:52:00,11.8,1.7,29.84,NW,315,9.2,15.2,63,0.00,,,0.00,WUHU21623XXSP,2013-01-22 01:52:00,
2013-01-21 20:57:00,11.7,1.6,29.84,WNW,291,11.4,16.3,63,0.00,,,0.00,WUHU21623XXSP,2013-01-22 01:57:00,
2013-01-21 21:02:00,11.3,1.3,29.84,NNW,337,12.8,16.3,63,0.00,,,0.00,WUHU21623XXSP,2013-01-22 02:02:00,
2013-01-21 21:07:00,10.9,0.9,29.84,WSW,255,10.7,18.3,63,0.00,,,0.00,WUHU21623XXSP,2013-01-22 02:07:00,
2013-01-21 21:12:00,10.6,0.6,29.85,West,270,17.7,18.3,63,0.00,,,0.00,WUHU21623XXSP,2013-01-22 02:12:00,
2013-01-21 21:17:00,10.2,-0.1,29.85,West,260,7.7,17.7,62,0.00,,,0.00,WUHU21623XXSP,2013-01-22 02:17:00,
2013-01-21 21:22:00,10.0,-0.3,29.85,West,270,19.0,19.0,62,0.00,,,0.00,WUHU21623XXSP,2013-01-22 02:22:00,
2013-01-21 21:27:00,9.7,-0.8,29.85,WSW,247,8.0,19.7,62,0.00,,,0.00,WUHU21623XXSP,2013-01-22 02:27:00,
2013-01-21 21:32:00,9.5,-1.3,29.85,SW,225,10.5,19.7,61,0.00,,,0.00,WUHU21623XXSP,2013-01-22 02:32:00,
2013-01-21 21:37:00,9.1,-1.9,29.85,WSW,255,10.1,22.8,60,0.00,,,0.00,WUHU21623XXSP,2013-01-22 02:37:00,
2013-01-21 21:42:00,8.8,-2.2,29.85,NW,315,9.6,22.8,60,0.00,,,0.00,WUHU21623XXSP,2013-01-22 02:42:00,
2013-01-21 21:47:00,8.4,-2.9,29.85,West,262,7.1,13.6,59,0.00,,,0.00,WUHU21623XXSP,2013-01-22 02:47:00,
2013-01-21 21:52:00,8.4,-3.2,29.85,WNW,282,8.1,17.7,58,0.00,,,0.00,WUHU21623XXSP,2013-01-22 02:52:00,
2013-01-21 21:57:00,8.2,-3.4,29.86,West,266,7.9,24.6,58,0.00,,,0.00,WUHU21623XXSP,2013-01-22 02:57:00,
2013-01-21 22:02:00,8.1,-3.8,29.86,West,269,5.5,24.6,58,0.00,,,0.00,WUHU21623XXSP,2013-01-22 03:02:00,
2013-01-21 22:07:00,7.7,-4.4,29.86,West,271,9.0,15.7,57,0.00,,,0.00,WUHU21623XXSP,2013-01-22 03:07:00,
2013-01-21 22:12:00,7.5,-4.6,29.86,WSW,252,8.4,19.0,57,0.00,,,0.00,WUHU21623XXSP,2013-01-22 03:12:00,
2013-01-21 22:17:00,7.3,-5.1,29.86,WSW,247,6.5,19.0,56,0.00,,,0.00,WUHU21623XXSP,2013-01-22 03:17:00,
2013-01-21 22:22:00,7.0,-5.4,29.86,WSW,251,6.7,10.7,56,0.00,,,0.00,WUHU21623XXSP,2013-01-22 03:22:00,
2013-01-21 22:27:00,6.6,-5.8,29.86,West,270,8.3,12.8,56,0.00,,,0.00,WUHU21623XXSP,2013-01-22 03:27:00,
2013-01-21 22:32:00,6.4,-6.0,29.86,WSW,248,8.0,16.8,56,0.00,,,0.00,WUHU21623XXSP,2013-01-22 03:32:00,
2013-01-21 22:37:00,6.1,-6.2,29.86,WSW,247,8.5,16.8,56,0.00,,,0.00,WUHU21623XXSP,2013-01-22 03:37:00,
2013-01-21 22:42:00,6.1,-6.5,29.87,West,263,6.3,11.9,55,0.00,,,0.00,WUHU21623XXSP,2013-01-22 03:42:00,
2013-01-21 22:47:00,5.7,-6.9,29.87,West,268,6.5,11.9,55,0.00,,,0.00,WUHU21623XXSP,2013-01-22 03:47:00,
2013-01-21 22:52:00,5.5,-6.8,29.87,West,275,5.0,12.8,56,0.00,,,0.00,WUHU21623XXSP,2013-01-22 03:52:00,
2013-01-21 22:57:00,5.4,-6.9,29.87,West,270,6.3,12.8,56,0.00,,,0.00,WUHU21623XXSP,2013-01-22 03:57:00,
2013-01-21 23:02:00,5.2,-7.1,29.87,WSW,250,5.5,12.8,56,0.00,,,0.00,WUHU21623XXSP,2013-01-22 04:02:00,
2013-01-21 23:07:00,4.8,-7.5,29.87,WSW,245,5.3,10.3,56,0.00,,,0.00,WUHU21623XXSP,2013-01-22 04:07:00,
2013-01-21 23:12:00,4.8,-7.5,29.87,WSW,240,5.4,10.3,56,0.00,,,0.00,WUHU21623XXSP,2013-01-22 04:12:00,
2013-01-21 23:17:00,4.6,-7.4,29.87,WSW,245,6.5,10.7,57,0.00,,,0.00,WUHU21623XXSP,2013-01-22 04:17:00,
2013-01-21 23:22:00,4.6,-7.4,29.87,WSW,247,7.8,10.7,57,0.00,,,0.00,WUHU21623XXSP,2013-01-22 04:22:00,
2013-01-21 23:27:00,4.5,-7.4,29.87,WSW,256,8.1,14.5,57,0.00,,,0.00,WUHU21623XXSP,2013-01-22 04:27:00,
2013-01-21 23:32:00,4.6,-7.1,29.87,WSW,255,7.6,15.4,58,0.00,,,0.00,WUHU21623XXSP,2013-01-22 04:32:00,
2013-01-21 23:37:00,4.6,-7.4,29.87,West,270,11.9,15.4,57,0.00,,,0.00,WUHU21623XXSP,2013-01-22 04:37:00,
2013-01-21 23:42:00,4.6,-7.4,29.87,WSW,253,8.4,15.4,57,0.00,,,0.00,WUHU21623XXSP,2013-01-22 04:42:00,
2013-01-21 23:47:00,4.6,-7.4,29.87,WSW,255,8.5,18.1,57,0.00,,,0.00,WUHU21623XXSP,2013-01-22 04:47:00,
2013-01-21 23:52:00,4.6,-7.4,29.87,West,265,6.5,18.1,57,0.00,,,0.00,WUHU21623XXSP,2013-01-22 04:52:00,
2013-01-21 23:57:00,4.5,-7.4,29.87,WSW,251,7.8,13.0,57,0.00,,,0.00,WUHU21623XXSP,2013-01-22 04:57:00,